Time,TemperatureF,DewpointF,PressureIn,WindDirection,WindDirectionDegrees,WindSpeedMPH,WindSpeedGustMPH,Humidity,HourlyPrecipIn,Conditions,Clouds,dailyrainin,SoftwareType,DateUTC
2013-12-02 00:03:00,46.0,41.0,30.04,ESE,123,0.0,0.0,84,0.00,,,0.01,weatherlink.com 1.10,2013-12-02 05:03:00,
2013-12-02 00:18:00,45.9,41.0,30.04,ESE,123,0.0,0.0,83,0.00,,,0.00,weatherlink.com 1.10,2013-12-02 05:18:00,
2013-12-02 00:33:00,45.8,41.0,30.03,ESE,123,0.0,0.0,83,0.00,,,0.00,weatherlink.com 1.10,2013-12-02 05:33:00,
2013-12-02 00:51:00,45.9,41.0,30.03,ESE,123,0.0,0.0,84,0.00,,,0.00,weatherlink.com 1.10,2013-12-02 05:51:00,
2013-12-02 01:03:00,45.9,41.0,30.02,ESE,123,0.0,0.0,82,0.00,,,0.00,weatherlink.com 1.10,2013-12-02 06:03:00,
2013-12-02 01:18:00,45.9,41.0,30.02,ESE,123,0.0,0.0,83,0.00,,,0.00,weatherlink.com 1.10,2013-12-02 06:18:00,
2013-12-02 01:33:00,45.9,41.0,30.01,ESE,123,0.0,0.0,84,0.00,,,0.00,weatherlink.com 1.10,2013-12-02 06:33:00,
2013-12-02 01:48:00,45.9,41.0,30.01,ESE,123,0.0,0.0,84,0.00,,,0.00,weatherlink.com 1.10,2013-12-02 06:48:00,
2013-12-02 02:03:00,46.0,41.0,30.01,ESE,123,0.0,0.0,84,0.00,,,0.00,weatherlink.com 1.10,2013-12-02 07:03:00,
2013-12-02 02:18:00,46.0,41.0,30.00,ESE,123,0.0,0.0,84,0.00,,,0.00,weatherlink.com 1.10,2013-12-02 07:18:00,
2013-12-02 02:33:00,45.8,42.0,30.00,ESE,123,0.0,0.0,87,0.00,,,0.00,weatherlink.com 1.10,2013-12-02 07:33:00,
2013-12-02 02:48:00,45.5,42.0,30.00,ESE,123,0.0,0.0,88,0.00,,,0.00,weatherlink.com 1.10,2013-12-02 07:48:00,
2013-12-02 03:03:00,45.3,43.0,30.00,ESE,123,0.0,0.0,90,0.00,,,0.00,weatherlink.com 1.10,2013-12-02 08:03:00,
2013-12-02 03:18:00,44.8,43.0,30.00,ESE,123,0.0,0.0,92,0.00,,,0.00,weatherlink.com 1.10,2013-12-02 08:18:00,
2013-12-02 03:33:00,44.7,43.0,30.00,ESE,123,0.0,0.0,92,0.00,,,0.00,weatherlink.com 1.10,2013-12-02 08:33:00,
2013-12-02 03:48:00,44.6,43.0,29.99,ESE,123,0.0,0.0,92,0.00,,,0.00,weatherlink.com 1.10,2013-12-02 08:48:00,
2013-12-02 04:04:00,44.7,43.0,29.99,ESE,123,0.0,0.0,92,0.00,,,0.00,weatherlink.com 1.10,2013-12-02 09:04:00,
2013-12-02 04:18:00,44.6,43.0,29.99,ESE,123,0.0,0.0,93,0.00,,,0.00,weatherlink.com 1.10,2013-12-02 09:18:00,
2013-12-02 04:33:00,44.4,43.0,29.98,ESE,123,0.0,0.0,93,0.00,,,0.00,weatherlink.com 1.10,2013-12-02 09:33:00,
2013-12-02 04:48:00,44.1,43.0,29.97,ESE,123,0.0,0.0,94,0.00,,,0.00,weatherlink.com 1.10,2013-12-02 09:48:00,
2013-12-02 05:03:00,44.0,43.0,29.98,ESE,123,0.0,0.0,95,0.00,,,0.00,weatherlink.com 1.10,2013-12-02 10:03:00,
2013-12-02 05:18:00,44.0,43.0,29.97,ESE,123,0.0,0.0,95,0.00,,,0.00,weatherlink.com 1.10,2013-12-02 10:18:00,
2013-12-02 05:33:00,44.1,43.0,29.97,ESE,123,0.0,0.0,95,0.00,,,0.00,weatherlink.com 1.10,2013-12-02 10:33:00,
2013-12-02 05:48:00,44.1,43.0,29.97,ESE,123,0.0,0.0,96,0.00,,,0.00,weatherlink.com 1.10,2013-12-02 10:48:00,
2013-12-02 06:03:00,44.2,43.0,29.97,ESE,123,0.0,0.0,96,0.00,,,0.00,weatherlink.com 1.10,2013-12-02 11:03:00,
2013-12-02 06:18:00,44.1,43.0,29.97,ESE,123,0.0,0.0,96,0.00,,,0.00,weatherlink.com 1.10,2013-12-02 11:18:00,
2013-12-02 06:33:00,44.1,43.0,29.96,ESE,123,0.0,0.0,96,0.00,,,0.00,weatherlink.com 1.10,2013-12-02 11:33:00,
2013-12-02 06:48:00,44.1,43.0,29.96,ESE,123,0.0,0.0,96,0.00,,,0.00,weatherlink.com 1.10,2013-12-02 11:48:00,
2013-12-02 07:03:00,44.1,43.0,29.96,ESE,123,0.0,0.0,96,0.00,,,0.00,weatherlink.com 1.10,2013-12-02 12:03:00,
2013-12-02 07:18:00,44.1,43.0,29.96,ESE,123,0.0,0.0,96,0.00,,,0.00,weatherlink.com 1.10,2013-12-02 12:18:00,
2013-12-02 07:33:00,44.1,43.0,29.96,ESE,123,0.0,0.0,96,0.00,,,0.00,weatherlink.com 1.10,2013-12-02 12:33:00,
2013-12-02 07:48:00,44.1,43.0,29.96,ESE,123,0.0,0.0,96,0.00,,,0.00,weatherlink.com 1.10,2013-12-02 12:48:00,
2013-12-02 08:03:00,44.2,43.0,29.96,ESE,123,0.0,0.0,96,0.00,,,0.00,weatherlink.com 1.10,2013-12-02 13:03:00,
2013-12-02 08:18:00,44.2,43.0,29.96,ESE,123,0.0,0.0,96,0.00,,,0.00,weatherlink.com 1.10,2013-12-02 13:18:00,
2013-12-02 08:33:00,44.3,43.0,29.96,ESE,123,0.0,0.0,96,0.00,,,0.00,weatherlink.com 1.10,2013-12-02 13:33:00,
2013-12-02 08:49:00,44.3,43.0,29.96,ESE,123,0.0,0.0,96,0.00,,,0.00,weatherlink.com 1.10,2013-12-02 13:49:00,
2013-12-02 09:03:00,44.4,43.0,29.97,ESE,123,0.0,0.0,96,0.00,,,0.00,weatherlink.com 1.10,2013-12-02 14:03:00,
2013-12-02 09:18:00,44.6,44.0,29.96,ESE,123,0.0,0.0,97,0.01,,,0.01,weatherlink.com 1.10,2013-12-02 14:18:00,
2013-12-02 09:34:00,44.8,44.0,29.95,ESE,123,0.0,0.0,97,0.01,,,0.01,weatherlink.com 1.10,2013-12-02 14:34:00,
2013-12-02 09:49:00,44.9,44.0,29.96,ESE,123,0.0,0.0,97,0.01,,,0.01,weatherlink.com 1.10,2013-12-02 14:49:00,
2013-12-02 10:04:00,45.0,44.0,29.95,ESE,109,0.0,0.0,96,0.00,,,0.01,weatherlink.com 1.10,2013-12-02 15:04:00,
2013-12-02 10:19:00,45.1,44.0,29.94,ESE,116,0.0,1.0,96,0.00,,,0.01,weatherlink.com 1.10,2013-12-02 15:19:00,
2013-12-02 10:34:00,45.1,44.0,29.94,SSE,161,0.0,0.0,97,0.00,,,0.01,weatherlink.com 1.10,2013-12-02 15:34:00,
2013-12-02 10:49:00,45.3,44.0,29.94,SSE,162,0.0,0.0,96,0.00,,,0.01,weatherlink.com 1.10,2013-12-02 15:49:00,
2013-12-02 11:04:00,45.4,45.0,29.94,SSE,161,0.0,0.0,97,0.00,,,0.01,weatherlink.com 1.10,2013-12-02 16:04:00,
2013-12-02 11:19:00,45.5,45.0,29.93,SE,141,0.0,0.0,96,0.00,,,0.01,weatherlink.com 1.10,2013-12-02 16:19:00,
2013-12-02 11:34:00,45.7,45.0,29.93,SE,142,0.0,0.0,96,0.00,,,0.01,weatherlink.com 1.10,2013-12-02 16:34:00,
2013-12-02 11:49:00,45.8,45.0,29.93,SE,142,0.0,0.0,96,0.00,,,0.01,weatherlink.com 1.10,2013-12-02 16:49:00,
2013-12-02 12:04:00,46.0,45.0,29.91,SE,142,0.0,0.0,96,0.00,,,0.01,weatherlink.com 1.10,2013-12-02 17:04:00,
2013-12-02 12:19:00,46.1,45.0,29.91,SE,134,0.0,0.0,96,0.00,,,0.01,weatherlink.com 1.10,2013-12-02 17:19:00,
2013-12-02 12:34:00,46.1,45.0,29.90,SE,130,0.0,0.0,96,0.00,,,0.01,weatherlink.com 1.10,2013-12-02 17:34:00,
2013-12-02 12:49:00,46.4,46.0,29.90,SE,138,0.0,0.0,97,0.00,,,0.01,weatherlink.com 1.10,2013-12-02 17:49:00,
2013-12-02 13:04:00,46.6,46.0,29.89,SSE,165,0.0,0.0,97,0.00,,,0.01,weatherlink.com 1.10,2013-12-02 18:04:00,
2013-12-02 13:19:00,46.7,46.0,29.88,SSE,165,0.0,0.0,96,0.00,,,0.01,weatherlink.com 1.10,2013-12-02 18:19:00,
2013-12-02 13:34:00,46.7,46.0,29.87,SSE,148,0.0,0.0,96,0.00,,,0.01,weatherlink.com 1.10,2013-12-02 18:34:00,
2013-12-02 13:49:00,46.9,46.0,29.86,SSE,158,0.0,0.0,96,0.00,,,0.01,weatherlink.com 1.10,2013-12-02 18:49:00,
2013-12-02 14:04:00,47.1,46.0,29.86,SW,227,0.0,0.0,96,0.00,,,0.01,weatherlink.com 1.10,2013-12-02 19:04:00,
2013-12-02 14:19:00,47.3,46.0,29.85,ESE,107,0.0,0.0,96,0.00,,,0.01,weatherlink.com 1.10,2013-12-02 19:19:00,
2013-12-02 14:39:00,47.3,46.0,29.85,ESE,107,0.0,0.0,96,0.00,,,0.01,weatherlink.com 1.10,2013-12-02 19:39:00,
2013-12-02 14:49:00,47.3,46.0,29.85,ESE,107,0.0,1.0,96,0.00,,,0.01,weatherlink.com 1.10,2013-12-02 19:49:00,
2013-12-02 15:04:00,47.3,46.0,29.85,ESE,107,0.0,1.0,96,0.00,,,0.01,weatherlink.com 1.10,2013-12-02 20:04:00,
2013-12-02 15:19:00,47.4,46.0,29.85,ESE,107,0.0,0.0,96,0.00,,,0.01,weatherlink.com 1.10,2013-12-02 20:19:00,
2013-12-02 15:34:00,47.5,47.0,29.85,ESE,107,0.0,0.0,96,0.00,,,0.01,weatherlink.com 1.10,2013-12-02 20:34:00,
2013-12-02 15:49:00,47.5,47.0,29.85,ESE,107,0.0,0.0,97,0.01,,,0.02,weatherlink.com 1.10,2013-12-02 20:49:00,
2013-12-02 16:04:00,47.5,47.0,29.84,ESE,107,0.0,0.0,97,0.01,,,0.02,weatherlink.com 1.10,2013-12-02 21:04:00,
2013-12-02 16:19:00,47.5,47.0,29.84,ESE,107,0.0,0.0,97,0.01,,,0.02,weatherlink.com 1.10,2013-12-02 21:19:00,
2013-12-02 16:34:00,47.6,47.0,29.84,ESE,107,0.0,0.0,97,0.01,,,0.02,weatherlink.com 1.10,2013-12-02 21:34:00,
2013-12-02 16:49:00,47.6,47.0,29.85,ESE,107,0.0,0.0,97,0.00,,,0.02,weatherlink.com 1.10,2013-12-02 21:49:00,
2013-12-02 17:04:00,47.6,47.0,29.84,ESE,107,0.0,0.0,97,0.00,,,0.02,weatherlink.com 1.10,2013-12-02 22:04:00,
2013-12-02 17:19:00,47.5,47.0,29.85,ESE,107,0.0,0.0,97,0.00,,,0.02,weatherlink.com 1.10,2013-12-02 22:19:00,
2013-12-02 17:34:00,47.5,47.0,29.85,ESE,107,0.0,0.0,97,0.00,,,0.02,weatherlink.com 1.10,2013-12-02 22:34:00,
2013-12-02 17:52:00,47.4,47.0,29.86,ESE,107,0.0,0.0,97,0.00,,,0.02,weatherlink.com 1.10,2013-12-02 22:52:00,
2013-12-02 18:04:00,47.4,47.0,29.85,ESE,107,0.0,0.0,97,0.00,,,0.02,weatherlink.com 1.10,2013-12-02 23:04:00,
2013-12-02 18:19:00,47.4,47.0,29.85,ESE,107,0.0,0.0,97,0.00,,,0.02,weatherlink.com 1.10,2013-12-02 23:19:00,
2013-12-02 18:34:00,47.4,47.0,29.85,ESE,107,0.0,0.0,97,0.00,,,0.02,weatherlink.com 1.10,2013-12-02 23:34:00,
2013-12-02 18:49:00,47.3,47.0,29.85,ESE,107,0.0,0.0,97,0.00,,,0.02,weatherlink.com 1.10,2013-12-02 23:49:00,
2013-12-02 19:04:00,47.4,47.0,29.85,ESE,107,0.0,0.0,97,0.00,,,0.02,weatherlink.com 1.10,2013-12-03 00:04:00,
2013-12-02 19:23:00,47.3,47.0,29.85,ESE,107,0.0,0.0,97,0.00,,,0.02,weatherlink.com 1.10,2013-12-03 00:23:00,
2013-12-02 19:34:00,47.4,47.0,29.85,ESE,107,0.0,0.0,97,0.00,,,0.02,weatherlink.com 1.10,2013-12-03 00:34:00,
2013-12-02 19:49:00,47.4,47.0,29.85,ESE,107,0.0,0.0,97,0.00,,,0.02,weatherlink.com 1.10,2013-12-03 00:49:00,
2013-12-02 20:04:00,47.5,47.0,29.86,ESE,107,0.0,0.0,97,0.00,,,0.02,weatherlink.com 1.10,2013-12-03 01:04:00,
2013-12-02 20:19:00,47.5,47.0,29.86,ESE,107,0.0,0.0,98,0.00,,,0.02,weatherlink.com 1.10,2013-12-03 01:19:00,
2013-12-02 20:34:00,47.6,47.0,29.86,ESE,107,0.0,0.0,98,0.00,,,0.02,weatherlink.com 1.10,2013-12-03 01:34:00,
2013-12-02 20:49:00,47.6,47.0,29.86,ESE,107,0.0,0.0,98,0.00,,,0.02,weatherlink.com 1.10,2013-12-03 01:49:00,
2013-12-02 21:04:00,47.6,47.0,29.86,ESE,107,0.0,0.0,98,0.00,,,0.02,weatherlink.com 1.10,2013-12-03 02:04:00,
2013-12-02 21:19:00,47.6,47.0,29.87,ESE,107,0.0,0.0,98,0.00,,,0.02,weatherlink.com 1.10,2013-12-03 02:19:00,
2013-12-02 21:34:00,47.6,47.0,29.86,ESE,107,0.0,0.0,98,0.00,,,0.02,weatherlink.com 1.10,2013-12-03 02:34:00,
2013-12-02 21:49:00,47.6,47.0,29.87,ESE,107,0.0,0.0,98,0.00,,,0.02,weatherlink.com 1.10,2013-12-03 02:49:00,
2013-12-02 22:04:00,47.6,47.0,29.86,ESE,107,0.0,0.0,98,0.00,,,0.02,weatherlink.com 1.10,2013-12-03 03:04:00,
2013-12-02 22:19:00,47.6,47.0,29.87,ESE,107,0.0,0.0,98,0.00,,,0.02,weatherlink.com 1.10,2013-12-03 03:19:00,
2013-12-02 22:37:00,47.6,47.0,29.86,ESE,107,0.0,0.0,98,0.00,,,0.02,weatherlink.com 1.10,2013-12-03 03:37:00,
2013-12-02 22:49:00,47.6,47.0,29.86,ESE,107,0.0,0.0,98,0.00,,,0.02,weatherlink.com 1.10,2013-12-03 03:49:00,
2013-12-02 23:04:00,47.6,47.0,29.87,ESE,107,0.0,0.0,98,0.00,,,0.02,weatherlink.com 1.10,2013-12-03 04:04:00,
2013-12-02 23:19:00,47.6,47.0,29.88,ESE,107,0.0,0.0,98,0.00,,,0.02,weatherlink.com 1.10,2013-12-03 04:19:00,
2013-12-02 23:34:00,47.6,47.0,29.88,ESE,107,0.0,0.0,98,0.00,,,0.02,weatherlink.com 1.10,2013-12-03 04:34:00,
2013-12-02 23:49:00,47.6,47.0,29.88,ESE,107,0.0,0.0,98,0.00,,,0.02,weatherlink.com 1.10,2013-12-03 04:49:00,